This demonstration page uses our WeatherBlox Daily Observations layout. Learn more.

Left ArrowRight Arrow

34.16533, -84.80231

Hourly Observations for May 9, 2017

Temp ( °F °C ) Dew Point ( °F °C ) Humidity (%) Winds ( mph kmh ) Pressure ( in mb ) Visibility ( mi km ) Precip ( " mm )
12:53 am 00:53 Clear 54 12.2 54 12.2 100 100 Calm 30.05 1018 10 16 0.00 0.00
1:53 am 01:53 Clear 55 12.8 54 12.2 96 96 Calm 30.04 1017 10 16 0.00 0.00
2:53 am 02:53 Clear 52 11.1 52 11.1 100 100 Calm 30.03 1017 10 16 0.00 0.00
3:53 am 03:53 Clear 51 10.6 51 10.6 100 100 Calm 30.04 1017 10 16 0.00 0.00
4:53 am 04:53 Clear 51 10.6 51 10.6 100 100 Calm 30.03 1017 10 16 0.00 0.00
5:53 am 05:53 Clear 51 10.6 51 10.6 100 100 Calm 30.03 1017 10 16 0.00 0.00
6:53 am 06:53 Sunny 51 10.6 51 10.6 100 100 Calm 30.04 1017 10 16 0.00 0.00
7:53 am 07:53 Sunny 56 13.3 55 12.8 97 97 Calm 30.05 1018 10 16 0.00 0.00
8:53 am 08:53 Sunny 63 17.2 56 13.3 78 78 Calm 30.06 1018 10 16 0.00 0.00
9:53 am 09:53 Sunny 70 21.1 58 14.4 66 66 Calm 30.08 1019 10 16 0.00 0.00
10:53 am 10:53 Sunny 74 23.3 59 15 60 60 Calm 30.08 1019 10 16 0.00 0.00
11:53 am 11:53 Sunny 79 26.1 57 13.9 47 47 VRB 3 6 30.07 1018 10 16 0.00 0.00
12:53 pm 12:53 Sunny 82 27.8 57 13.9 42 42 VRB 5 7 30.06 1018 10 16 0.00 0.00
1:53 pm 13:53 Sunny 83 28.3 56 13.3 40 40 VRB 3 6 30.04 1017 10 16 0.00 0.00
2:53 pm 14:53 Sunny 83 28.3 55 12.8 38 38 VRB 5 7 30.03 1017 10 16 0.00 0.00
3:53 pm 15:53 Sunny 84 28.9 56 13.3 38 38 VRB 5 7 30.01 1016 10 16 0.00 0.00
4:53 pm 16:53 Sunny 84 28.9 56 13.3 38 38 VRB 3 6 29.98 1015 10 16 0.00 0.00
5:53 pm 17:53 Sunny 83 28.3 56 13.3 40 40 VRB 5 7 29.97 1015 10 16 0.00 0.00
6:53 pm 18:53 Sunny 81 27.2 55 12.8 41 41 Calm 29.96 1015 10 16 0.00 0.00
7:53 pm 19:53 Sunny 78 25.6 56 13.3 47 47 Calm 29.97 1015 10 16 0.00 0.00
8:53 pm 20:53 Clear 68 20 60 15.6 76 76 Calm 29.98 1015 10 16 0.00 0.00
9:53 pm 21:53 Clear 66 18.9 59 15 78 78 Calm 29.98 1015 10 16 0.00 0.00
10:53 pm 22:53 Clear 64 17.8 59 15 84 84 Calm 30.00 1016 10 16 0.00 0.00
11:53 pm 23:53 Clear 60 15.6 59 15 96 96 Calm 30.00 1016 10 16 0.00 0.00

Powered by AerisWeather